sat.trackr.live / text

‹ back to catalog

STARLINK-11668 [DTC]

NORAD 63557 · 2025-075K

PAYLOAD ACTIVE UNKNOWN

§ Identity

Operator
Country
US
Launch date
2025-04-13
Launch site
AFETR
Launch vehicle
Mass (kg)
RCS (m²)

Purposes: comms

External: N2YO · Heavens-Above · Gunter

§ Orbital elements

Epoch: 2026-05-25T02:34:36.050880Z

Period
91.67 min
Inclination
43.0019°
Eccentricity
0.0002670
Mean motion
15.70925430 rev/d
Perigee alt
354.5 km
Apogee alt
358.0 km
Semi-major
6,734.4 km
B*
1.2455e-3
RAAN
53.4936°
Arg perigee
259.9327°
Mean anomaly
100.1240°
Rev number
6,526

§ Raw data

STARLINK-11668 [DTC]1 63557U 25075K   26145.10736170  .00163136  00000+0  12455-2 0  99962 63557  43.0019  53.4936 0002670 259.9327 100.1240 15.70925430 65260

JSON: /api/v1/satellites/63557 · /tle

For live sub-satellite position, see the globe view (requires WebGL).

§ Visibility from observer

Set your observer location to see the next 7 days of passes ≥ 10°. The values pass through the URL so the page stays shareable.

No JS? Fill the form by hand. The geolocation button needs JavaScript.